Location: Newark
(6.1167°N, 1.2167°E)
Time: 19:41:19
(UTC+00:00)

Hubble Space Telescope - Visible Passes

Search period start: 20 March 2019 00:00
Search period end: 30 March 2019 00:00
Orbit: 537 x 540 km, 28.5° (Epoch: 19 March)

Date Brightness Start Highest point End Pass type
(mag) Time Alt. Az. Time Alt. Az. Time Alt. Az.
20 Mar 3.1 03:59:59 20° NE 03:59:59 20° NE 04:02:12 10° ENE visible
20 Mar 0.9 05:36:05 10° WNW 05:40:10 62° SSW 05:44:15 10° SE visible
20 Mar 1.8 19:13:55 10° W 19:17:49 40° NNW 19:19:51 23° NNE visible
21 Mar 3.4 03:50:37 19° ENE 03:50:37 19° ENE 03:52:08 10° E visible
21 Mar 1.3 05:25:59 11° W 05:29:41 42° SSW 05:33:37 10° SE visible
21 Mar 2.4 19:03:45 10° W 19:07:22 29° NNW 19:10:29 13° NNE visible
22 Mar 3.8 03:41:16 14° E 03:41:16 14° E 03:41:59 10° E visible
22 Mar 1.8 05:16:39 16° W 05:19:12 30° SSW 05:22:51 10° SSE visible
22 Mar 2.8 18:53:42 10° WNW 18:56:57 22° NNW 19:00:13 10° NNE visible
23 Mar 2.3 05:07:19 18° WSW 05:08:44 22° SSW 05:11:57 10° SSE visible
23 Mar 3.2 18:43:49 10° WNW 18:46:33 17° NNW 18:49:17 10° NNE visible
24 Mar 2.6 04:57:59 16° SW 04:58:16 16° SSW 05:00:48 10° S visible
24 Mar 3.4 18:34:13 10° NW 18:36:11 13° NNW 18:38:08 10° N visible
25 Mar 3.1 04:48:36 11° SSW 04:48:36 11° SSW 04:49:07 10° SSW visible
